Location: Wapato
(46.4478°N, 120.4212°W)
Time: 15:07:29
(UTC+00:00)

Vanguard 2 Rocket - Pass Details

Date: 11 May 2026
Orbit: 553 x 3286 km, 32.9° (Epoch: 7 June)

Event Time Altitude Azimuth Distance (km) Brightness Sun altitude
Rises 19:32:17 0° 225° (SW) 5,719 11.2 61.1°
Reaches altitude 10° 19:35:53 10° 219° (SW) 5,042 11.1 61.2°
Maximum altitude 19:50:15 42° 155° (SSE) 3,919 11.6 61.6°
Drops below altitude 10° 20:08:01 10° 94° (E) 6,190 11.3 61.5°
Sets 20:13:01 0° 89° (E) 7,090 11.4 61.4°
